Radiation Dose at Monitoring Post of Fukushima Daini Nuclear Power Station
Date,Time,MP-1(microSv/h),MP-2(microSv/h),MP-3(microSv/h),MP-4(microSv/h),MP-5(microSv/h),MP-6(microSv/h),MP-7(microSv/h),Wind Direction,Wind Velocity(m/s),Rain
2023/11/26,00:00,0.149,0.135,0.213,0.202,0.209,0.119,0.077,north-northwest,4.5,No
2023/11/26,00:10,0.149,0.134,0.213,0.204,0.208,0.120,0.077,north-northwest,4.4,No
2023/11/26,00:20,0.148,0.134,0.213,0.203,0.209,0.120,0.077,north-northwest,3.9,No
2023/11/26,00:30,0.149,0.135,0.213,0.203,0.209,0.119,0.078,north-northwest,3.3,No
2023/11/26,00:40,0.149,0.134,0.214,0.202,0.209,0.119,0.078,north-northwest,3.3,No
2023/11/26,00:50,0.149,0.134,0.213,0.202,0.209,0.119,0.077,north-northwest,4.4,No
2023/11/26,01:00,0.148,0.135,0.213,0.202,0.210,0.119,0.077,north-northwest,4.8,No
2023/11/26,01:10,0.148,0.134,0.213,0.202,0.208,0.120,0.078,north-northwest,5.8,No
2023/11/26,01:20,0.148,0.135,0.212,0.203,0.208,0.119,0.077,northwest,6.1,No
2023/11/26,01:30,0.148,0.134,0.213,0.203,0.210,0.118,0.078,north-northwest,6.0,No
2023/11/26,01:40,0.148,0.134,0.213,0.203,0.209,0.120,0.077,north-northwest,5.4,No
2023/11/26,01:50,0.148,0.133,0.214,0.203,0.209,0.119,0.077,north-northwest,2.3,No
2023/11/26,02:00,0.149,0.134,0.213,0.203,0.208,0.120,0.077,northeast,1.1,No
2023/11/26,02:10,0.149,0.134,0.213,0.202,0.208,0.119,0.077,north,2.2,No
2023/11/26,02:20,0.149,0.135,0.213,0.202,0.209,0.120,0.077,north-northwest,2.5,No
2023/11/26,02:30,0.150,0.134,0.213,0.203,0.209,0.119,0.078,north,3.5,No
2023/11/26,02:40,0.149,0.135,0.214,0.202,0.207,0.119,0.077,north,3.2,No
2023/11/26,02:50,0.148,0.135,0.213,0.203,0.208,0.120,0.077,north-northwest,2.4,No
2023/11/26,03:00,0.150,0.134,0.213,0.201,0.208,0.119,0.077,north-northwest,3.2,No
2023/11/26,03:10,0.148,0.134,0.213,0.202,0.209,0.119,0.077,north-northwest,4.1,No
2023/11/26,03:20,0.148,0.134,0.214,0.202,0.209,0.119,0.078,northwest,4.7,No
2023/11/26,03:30,0.149,0.135,0.213,0.202,0.209,0.120,0.077,northwest,5.9,No
2023/11/26,03:40,0.149,0.135,0.214,0.202,0.209,0.120,0.078,northwest,7.3,No
2023/11/26,03:50,0.149,0.134,0.213,0.203,0.209,0.119,0.077,northwest,7.2,No
2023/11/26,04:00,0.148,0.134,0.214,0.202,0.208,0.120,0.078,northwest,7.3,No
2023/11/26,04:10,0.149,0.134,0.213,0.202,0.209,0.119,0.077,west-northwest,8.2,No
2023/11/26,04:20,0.149,0.135,0.213,0.202,0.209,0.119,0.076,northwest,5.4,No
2023/11/26,04:30,0.149,0.134,0.214,0.202,0.209,0.119,0.077,northwest,3.8,No
2023/11/26,04:40,0.148,0.135,0.213,0.203,0.208,0.119,0.076,northwest,3.4,No
2023/11/26,04:50,0.149,0.134,0.213,0.202,0.209,0.120,0.077,northwest,4.0,No
2023/11/26,05:00,0.148,0.134,0.213,0.203,0.209,0.120,0.076,northwest,4.4,No
2023/11/26,05:10,0.148,0.133,0.213,0.203,0.209,0.119,0.077,northwest,4.8,No
2023/11/26,05:20,0.149,0.134,0.214,0.201,0.209,0.119,0.076,northwest,4.8,No
2023/11/26,05:30,0.149,0.134,0.213,0.202,0.209,0.118,0.077,northwest,4.0,No
2023/11/26,05:40,0.148,0.134,0.213,0.201,0.208,0.118,0.077,north-northwest,2.7,No
2023/11/26,05:50,0.149,0.134,0.214,0.203,0.208,0.118,0.077,northwest,2.4,No
2023/11/26,06:00,0.149,0.135,0.212,0.201,0.208,0.119,0.077,northwest,3.5,No
2023/11/26,06:10,0.149,0.134,0.213,0.202,0.209,0.118,0.077,northwest,3.6,No
2023/11/26,06:20,0.148,0.134,0.213,0.203,0.208,0.118,0.078,north-northwest,2.6,No
2023/11/26,06:30,0.149,0.135,0.213,0.202,0.208,0.119,0.077,north-northwest,3.7,No
2023/11/26,06:40,0.149,0.135,0.212,0.202,0.208,0.119,0.077,northwest,3.9,No
2023/11/26,06:50,0.148,0.135,0.212,0.201,0.208,0.118,0.076,northwest,5.8,No
2023/11/26,07:00,0.148,0.134,0.213,0.201,0.209,0.119,0.077,north-northwest,2.2,No
2023/11/26,07:10,0.149,0.134,0.214,0.203,0.207,0.119,0.076,northwest,5.1,No
2023/11/26,07:20,0.149,0.134,0.214,0.202,0.209,0.119,0.077,northwest,4.5,No
2023/11/26,07:30,0.149,0.134,0.214,0.201,0.210,0.119,0.078,northwest,5.2,No
2023/11/26,07:40,0.148,0.134,0.213,0.201,0.209,0.119,0.077,northwest,4.1,No
2023/11/26,07:50,0.149,0.134,0.213,0.203,0.208,0.119,0.077,northwest,2.1,No
2023/11/26,08:00,0.149,0.135,0.213,0.203,0.208,0.119,0.077,northwest,3.2,No
2023/11/26,08:10,0.148,0.134,0.213,0.202,0.208,0.120,0.077,northwest,3.5,No
2023/11/26,08:20,0.149,0.133,0.212,0.201,0.208,0.118,0.076,north-northwest,4.5,No
2023/11/26,08:30,0.148,0.134,0.213,0.201,0.209,0.119,0.078,northwest,4.0,No
2023/11/26,08:40,0.148,0.134,0.212,0.202,0.208,0.119,0.077,northwest,2.6,No
2023/11/26,08:50,0.148,0.135,0.212,0.201,0.209,0.120,0.077,northwest,1.3,No
2023/11/26,09:00,0.149,0.134,0.212,0.202,0.209,0.120,0.077,north-northwest,1.9,No
2023/11/26,09:10,0.148,0.134,0.212,0.202,0.209,0.119,0.078,north-northwest,2.3,No
2023/11/26,09:20,0.149,0.135,0.213,0.203,0.209,0.119,0.077,north-northwest,1.7,No
2023/11/26,09:30,0.150,0.134,0.213,0.201,0.210,0.119,0.077,north-northwest,1.4,No
2023/11/26,09:40,0.149,0.135,0.212,0.203,0.209,0.120,0.077,north,1.8,No
2023/11/26,09:50,0.149,0.134,0.213,0.202,0.208,0.119,0.077,north,1.7,No
2023/11/26,10:00,0.148,0.133,0.213,0.201,0.210,0.120,0.077,north-northwest,1.8,No
2023/11/26,10:10,0.149,0.134,0.213,0.203,0.210,0.119,0.077,north-northwest,0.9,No
2023/11/26,10:20,0.149,0.134,0.213,0.203,0.209,0.119,0.078,north,0.8,No
2023/11/26,10:30,0.149,0.134,0.213,0.202,0.210,0.120,0.077,north-northeast,0.9,No
2023/11/26,10:40,0.149,0.134,0.213,0.204,0.209,0.120,0.077,-,CALM,No
2023/11/26,10:50,0.149,0.135,0.212,0.202,0.209,0.119,0.078,-,CALM,No
2023/11/26,11:00,0.149,0.134,0.213,0.202,0.209,0.119,0.077,-,CALM,No
2023/11/26,11:10,0.149,0.135,0.213,0.203,0.209,0.118,0.077,-,CALM,Yes
2023/11/26,11:20,0.149,0.134,0.212,0.202,0.211,0.120,0.078,-,CALM,Yes
2023/11/26,11:30,0.149,0.134,0.213,0.202,0.209,0.120,0.078,north,0.9,No
2023/11/26,11:40,0.148,0.134,0.214,0.202,0.208,0.120,0.077,-,CALM,No
2023/11/26,11:50,0.148,0.134,0.212,0.202,0.210,0.119,0.078,-,CALM,Yes
2023/11/26,12:00,0.149,0.134,0.213,0.202,0.209,0.120,0.078,-,CALM,No
2023/11/26,12:10,0.148,0.134,0.214,0.203,0.210,0.120,0.078,west-northwest,1.2,No
2023/11/26,12:20,0.149,0.134,0.213,0.202,0.208,0.119,0.077,-,CALM,No
2023/11/26,12:30,0.147,0.134,0.212,0.203,0.209,0.120,0.077,east-northeast,0.9,Yes
2023/11/26,12:40,0.149,0.135,0.214,0.203,0.210,0.119,0.078,-,CALM,Yes
2023/11/26,12:50,0.149,0.134,0.212,0.203,0.209,0.120,0.077,-,CALM,Yes
2023/11/26,13:00,0.147,0.134,0.213,0.203,0.210,0.120,0.077,southwest,0.6,No
2023/11/26,13:10,0.149,0.134,0.214,0.202,0.209,0.119,0.077,south-southwest,0.8,Yes
2023/11/26,13:20,0.148,0.135,0.213,0.203,0.210,0.119,0.077,south-southwest,0.6,No
2023/11/26,13:30,0.148,0.134,0.213,0.203,0.210,0.119,0.077,-,CALM,No
2023/11/26,13:40,0.149,0.135,0.213,0.203,0.208,0.119,0.078,east-northeast,0.6,No
2023/11/26,13:50,0.148,0.135,0.212,0.203,0.210,0.119,0.077,northeast,0.6,No
2023/11/26,14:00,0.149,0.134,0.212,0.204,0.208,0.120,0.077,-,CALM,No
2023/11/26,14:10,0.149,0.134,0.212,0.202,0.210,0.120,0.077,-,CALM,No
2023/11/26,14:20,0.149,0.134,0.213,0.203,0.208,0.118,0.077,north,1.2,No
2023/11/26,14:30,0.149,0.135,0.213,0.204,0.210,0.120,0.077,north-northeast,0.6,No
2023/11/26,14:40,0.148,0.134,0.213,0.203,0.210,0.120,0.077,north,0.6,Yes
2023/11/26,14:50,0.149,0.135,0.213,0.203,0.208,0.119,0.077,north-northeast,0.6,Yes
2023/11/26,15:00,0.148,0.134,0.214,0.202,0.210,0.120,0.077,north-northeast,1.4,Yes
2023/11/26,15:10,0.148,0.134,0.214,0.202,0.209,0.120,0.077,-,CALM,Yes
2023/11/26,15:20,0.149,0.134,0.213,0.203,0.209,0.119,0.077,north-northeast,1.2,Yes
2023/11/26,15:30,0.149,0.135,0.213,0.203,0.210,0.118,0.077,north-northeast,0.9,No
2023/11/26,15:40,0.148,0.135,0.214,0.202,0.208,0.120,0.077,north-northwest,1.1,Yes
2023/11/26,15:50,0.149,0.136,0.213,0.204,0.210,0.119,0.078,northwest,0.8,No
2023/11/26,16:00,0.149,0.135,0.214,0.202,0.209,0.120,0.077,northwest,1.3,No
2023/11/26,16:10,0.149,0.134,0.213,0.203,0.210,0.120,0.078,northwest,1.8,No
2023/11/26,16:20,0.148,0.134,0.212,0.204,0.210,0.120,0.077,northwest,1.9,No
2023/11/26,16:30,0.150,0.134,0.214,0.203,0.208,0.120,0.077,northwest,0.8,No
2023/11/26,16:40,0.150,0.135,0.214,0.203,0.209,0.118,0.078,-,CALM,No
2023/11/26,16:50,0.148,0.135,0.214,0.202,0.210,0.120,0.078,-,CALM,No
2023/11/26,17:00,0.148,0.134,0.214,0.203,0.208,0.120,0.078,-,CALM,No
2023/11/26,17:10,0.149,0.134,0.213,0.203,0.210,0.120,0.078,northwest,0.8,No
2023/11/26,17:20,0.149,0.135,0.212,0.202,0.209,0.120,0.077,west,1.0,No
2023/11/26,17:30,0.149,0.134,0.213,0.204,0.209,0.118,0.078,-,CALM,No
2023/11/26,17:40,0.148,0.134,0.215,0.202,0.210,0.120,0.076,west-northwest,1.8,No
2023/11/26,17:50,0.148,0.135,0.214,0.202,0.208,0.119,0.077,west-northwest,1.9,No
2023/11/26,18:00,0.150,0.135,0.214,0.203,0.209,0.119,0.077,west,1.7,No
2023/11/26,18:10,0.149,0.135,0.213,0.202,0.209,0.120,0.077,west,1.3,No
2023/11/26,18:20,0.148,0.135,0.214,0.202,0.208,0.119,0.077,west-northwest,0.8,No
2023/11/26,18:30,0.149,0.134,0.213,0.203,0.208,0.119,0.077,west,1.3,No
2023/11/26,18:40,0.148,0.134,0.212,0.202,0.209,0.121,0.077,-,CALM,No
2023/11/26,18:50,0.148,0.135,0.214,0.202,0.209,0.119,0.078,-,CALM,No
2023/11/26,19:00,0.150,0.134,0.214,0.202,0.210,0.119,0.077,-,CALM,No
2023/11/26,19:10,0.149,0.135,0.214,0.203,0.210,0.120,0.077,-,CALM,No
2023/11/26,19:20,0.149,0.135,0.213,0.202,0.209,0.120,0.077,-,CALM,No
2023/11/26,19:30,0.149,0.134,0.214,0.203,0.209,0.120,0.077,-,CALM,No
2023/11/26,19:40,0.149,0.134,0.213,0.202,0.209,0.120,0.078,south-southwest,0.9,No
2023/11/26,19:50,0.149,0.135,0.214,0.203,0.209,0.119,0.077,south-southwest,0.7,No
2023/11/26,20:00,0.149,0.134,0.214,0.202,0.209,0.120,0.078,-,CALM,No
2023/11/26,20:10,0.149,0.134,0.214,0.203,0.210,0.120,0.078,southwest,1.1,No
2023/11/26,20:20,0.148,0.136,0.214,0.202,0.210,0.120,0.077,south-southwest,1.5,No
2023/11/26,20:30,0.149,0.135,0.213,0.202,0.210,0.119,0.078,south-southwest,1.4,No
2023/11/26,20:40,0.149,0.135,0.215,0.202,0.209,0.120,0.078,south-southwest,1.4,No
2023/11/26,20:50,0.149,0.135,0.213,0.202,0.209,0.121,0.077,south-southwest,1.4,No
2023/11/26,21:00,0.149,0.135,0.214,0.203,0.210,0.120,0.078,south,1.4,No
2023/11/26,21:10,0.149,0.136,0.214,0.204,0.209,0.120,0.078,south,2.0,No
2023/11/26,21:20,0.149,0.135,0.214,0.203,0.210,0.120,0.078,south,2.0,No
2023/11/26,21:30,0.149,0.134,0.213,0.203,0.211,0.120,0.078,south,2.2,No
2023/11/26,21:40,0.148,0.136,0.215,0.203,0.209,0.120,0.078,south-southeast,2.6,No
2023/11/26,21:50,0.150,0.135,0.214,0.203,0.210,0.120,0.079,south-southeast,2.4,No
2023/11/26,22:00,0.150,0.135,0.214,0.201,0.209,0.120,0.078,south-southeast,2.1,No
2023/11/26,22:10,0.149,0.135,0.213,0.204,0.211,0.120,0.078,south,2.7,No
2023/11/26,22:20,0.149,0.134,0.214,0.203,0.210,0.120,0.078,south,2.7,No
2023/11/26,22:30,0.149,0.134,0.214,0.203,0.209,0.121,0.078,south-southeast,2.8,No
2023/11/26,22:40,0.149,0.134,0.214,0.203,0.211,0.119,0.079,south-southeast,2.6,No
2023/11/26,22:50,0.150,0.135,0.214,0.204,0.209,0.120,0.078,south-southeast,2.6,No
2023/11/26,23:00,0.149,0.135,0.214,0.203,0.209,0.121,0.079,south-southeast,2.8,No
2023/11/26,23:10,0.149,0.134,0.214,0.203,0.211,0.120,0.078,south-southeast,3.2,No
2023/11/26,23:20,0.149,0.134,0.214,0.205,0.210,0.120,0.078,south-southeast,3.0,No
2023/11/26,23:30,0.149,0.135,0.213,0.203,0.210,0.120,0.078,south-southeast,2.8,No
2023/11/26,23:40,0.150,0.136,0.213,0.203,0.211,0.119,0.079,south-southeast,3.1,No
2023/11/26,23:50,0.149,0.134,0.214,0.204,0.210,0.120,0.078,south,3.4,No
